This is the latest recevied weather packets stored in our database for station/object N2UGS-WX. If no packets are shown the sender has not sent any weather packets the latest 10 day(s).
| Time | Temp. | Humidity | Pressure | Rain* | Wind** | Luminosity | Snow |
|---|---|---|---|---|---|---|---|
| 1777513742 | 6.11° C | 98% | 1010.2 hPa | 0.25 mm | - | - | - |
| 1777512842 | 6.11° C | 98% | 1010.2 hPa | 0.25 mm | - | - | - |
| 1777512002 | 6.11° C | 98% | 1009.8 hPa | 0.25 mm | - | - | - |
| 1777511042 | 6.11° C | 98% | 1009.8 hPa | 0.51 mm | - | - | - |
| 1777510142 | 6.11° C | 98% | 1009.5 hPa | 0.51 mm | - | - | - |
| 1777509242 | 6.11° C | 98% | 1009.5 hPa | 0.51 mm | - | - | - |
| 1777508642 | 6.11° C | 97% | 1009.5 hPa | 0.51 mm | - | - | - |
| 1777507742 | 6.11° C | 97% | 1009.5 hPa | 0.25 mm | - | - | - |
| 1777506842 | 6.67° C | 98% | 1009.1 hPa | 0 mm | - | - | - |
| 1777505942 | 7.22° C | 98% | 1008.8 hPa | 0.25 mm | - | - | - |
| 1777505103 | 7.22° C | 98% | 1008.8 hPa | 0.76 mm | - | - | - |
| 1777504142 | 7.22° C | 98% | 1008.8 hPa | 0.76 mm | - | - | - |
| 1777503302 | 7.22° C | 98% | 1008.8 hPa | 1.02 mm | - | - | - |
| 1777502403 | 7.22° C | 98% | 1008.8 hPa | 0.76 mm | - | - | - |
| 1777501503 | 7.22° C | 98% | 1008.5 hPa | 0.51 mm | - | - | - |
| 1777500603 | 7.22° C | 98% | 1008.5 hPa | 0.76 mm | - | - | - |
| 1777499702 | 7.78° C | 99% | 1008.1 hPa | 1.02 mm | - | - | - |
| 1777498742 | 7.78° C | 99% | 1008.5 hPa | 1.78 mm | - | - | - |
| 1777497902 | 7.78° C | 99% | 1008.1 hPa | 1.78 mm | - | - | - |
| 1777497003 | 7.78° C | 98% | 1008.5 hPa | 1.78 mm | - | - | - |
| 1777496103 | 7.78° C | 98% | 1008.5 hPa | 3.56 mm | - | - | - |
| 1777494242 | 7.78° C | 98% | 1008.5 hPa | 4.57 mm | - | - | - |
| 1777493341 | 7.78° C | 98% | 1008.5 hPa | 4.32 mm | - | - | - |
| 1777492442 | 8.33° C | 98% | 1008.5 hPa | 3.56 mm | - | - | - |
| 1777491542 | 7.78° C | 98% | 1009.1 hPa | 3.3 mm | - | - | - |
* Rain latest hour (hover to see other rain measurements)
** Current wind speed in m/s (hover to see current wind gust speed)